sat.trackr.live / text

‹ back to catalog

STARLINK-34250

NORAD 64690 · 2025-139AC

PAYLOAD ACTIVE UNKNOWN

§ Identity

Operator
Country
US
Launch date
2025-06-28
Launch site
AFETR
Launch vehicle
Mass (kg)
RCS (m²)

Purposes: comms

External: N2YO · Heavens-Above · Gunter

§ Orbital elements

Epoch: 2026-09-20T09:27:52.630560Z

Period
93.85 min
Inclination
53.1584°
Eccentricity
0.0000993
Mean motion
15.34373932 rev/d
Perigee alt
462.1 km
Apogee alt
463.5 km
Semi-major
6,840.9 km
B*
2.5300e-5
RAAN
298.4410°
Arg perigee
86.4328°
Mean anomaly
273.6788°
Rev number
7,015

§ Raw data

STARLINK-342501 64690U 25139AC  26263.39435915  .00000478  00000+0  25300-4 0  99952 64690  53.1584 298.4410 0000993  86.4328 273.6788 15.34373932 70157

JSON: /api/v1/satellites/64690 · /tle

For live sub-satellite position, see the globe view (requires WebGL).

§ Visibility from observer

Set your observer location to see the next 7 days of passes ≥ 10°. The values pass through the URL so the page stays shareable.

No JS? Fill the form by hand. The geolocation button needs JavaScript.